This demonstration page uses our WeatherBlox Daily Observations layout. Learn more.

Left ArrowRight Arrow

Hourly Observations for May 18, 2022

Temp ( °F °C ) Dew Point ( °F °C ) Humidity (%) Winds ( mph kmh ) Pressure ( in mb ) Visibility ( mi km ) Precip ( " mm )
12:40 am 00:40 Cloudy with Thunderstorms 65 18.3 60 15.6 84 84 N 15 24 29.85 1011 10 16 0.03 0.76
12:53 am 00:53 Cloudy with Thunderstorms 64 17.8 60 15.6 87 87 N 13 20 29.85 1011 10 16 0.04 1.02
1:53 am 01:53 Cloudy with Thunderstorms 65 18.3 60 15.6 84 84 N 13 20 29.85 1011 10 16 0.00 0.00
2:53 am 02:53 Mostly Cloudy 65 18.3 60 15.6 84 84 ENE 14 22 29.75 1008 10 16 0.00 0.00
3:53 am 03:53 Cloudy 65 18.3 59 15 81 81 S 7 11 29.76 1008 10 16 0.00 0.00
4:53 am 04:53 Mostly Cloudy 64 17.8 60 15.6 87 87 SSE 13 20 29.73 1007 10 16 0.00 0.00
5:53 am 05:53 Mostly Cloudy 63 17.2 60 15.6 90 90 S 6 9 29.78 1009 10 16 0.00 0.00
6:53 am 06:53 Mostly Cloudy 62 16.7 59 15 90 90 Calm 29.82 1010 10 16 0.00 0.00
7:53 am 07:53 Mostly Cloudy 65 18.3 61 16.1 87 87 NW 6 9 29.86 1011 10 16 0.00 0.00
8:53 am 08:53 Partly Cloudy 68 20 61 16.1 78 78 WNW 7 11 29.87 1011 10 16 0.00 0.00
9:53 am 09:53 Partly Cloudy 72 22.2 61 16.1 68 68 VRB 3 6 29.85 1011 10 16 0.00 0.00
10:53 am 10:53 Mostly Sunny 76 24.4 64 17.8 67 67 N 7 11 29.85 1011 10 16 0.00 0.00
11:53 am 11:53 Mostly Sunny 82 27.8 57 13.9 42 42 NW 8 13 29.84 1011 10 16 0.00 0.00
12:53 pm 12:53 Mostly Sunny 84 28.9 56 13.3 38 38 N 5 7 29.84 1011 10 16 0.00 0.00
1:53 pm 13:53 Partly Cloudy 87 30.6 60 15.6 40 40 VRB 7 11 29.82 1010 10 16 0.00 0.00
2:53 pm 14:53 Partly Cloudy 87 30.6 59 15 39 39 N 9 15 29.80 1009 10 16 0.00 0.00
3:53 pm 15:53 Partly Cloudy 87 30.6 58 14.4 37 37 NE 10 17 29.79 1009 10 16 0.00 0.00
4:53 pm 16:53 Mostly Sunny 88 31.1 59 15 38 38 ENE 8 13 29.78 1009 10 16 0.00 0.00
5:53 pm 17:53 Mostly Sunny 87 30.6 58 14.4 37 37 NNE 7 11 29.77 1008 10 16 0.00 0.00
6:53 pm 18:53 Mostly Sunny 84 28.9 59 15 43 43 E 7 11 29.77 1008 10 16 0.00 0.00
7:53 pm 19:53 Mostly Cloudy 81 27.2 60 15.6 49 49 ENE 8 13 29.76 1008 10 16 0.00 0.00
8:53 pm 20:53 Partly Cloudy 77 25 60 15.6 56 56 E 7 11 29.77 1008 10 16 0.00 0.00
9:53 pm 21:53 Clear 76 24.4 61 16.1 60 60 E 6 9 29.78 1008 10 16 0.00 0.00
10:53 pm 22:53 Partly Cloudy 74 23.3 61 16.1 64 64 ESE 8 13 29.78 1008 10 16 0.00 0.00
11:53 pm 23:53 Partly Cloudy 71 21.7 62 16.7 73 73 E 6 9 29.78 1008 10 16 0.00 0.00

Powered by AerisWeather